Terminal Aerodrome Forecast
Issued by NWS Amarillo, TX

Home | Current Version | Previous Version | Text Only | Print | Product List | Glossary On
Versions: 1 2 3 4 5 6 7 8 9 10 11 12 13
607
FTUS44 KAMA 072342
TAFDHT
TAF
KDHT 072342Z 0800/0824 01011KT P6SM FEW300
     FM080800 28008KT P6SM SKC
     FM082000 34012KT P6SM SKC=

USA.gov is the U.S. government's official web portal to all federal, state and local government web resources and services.